www.pogodaiklimat.ru

Погода и климат >> Архив погоды >> Украина >> Одесса


АРХИВ ПОГОДЫ в Одессе

Время (UTC), дата Ветер
(напр.,м/с)
 
Видим.   Явления Облачность Т
(С)
Тd
(С)
f
(%)
Тe
(С)
Тes
(С)
Комфортность P
(гПа)
Po
(гПа)
Тmin
(С)
Tmax
(С)
R
(мм)
R24
(мм)
S
(см)
18 11.06 ЮЗ 2 50 км 9/0
[Ac trans Ci fib]
+23.2 +9.9 43 +25 +25 комфорт 1010.8 1005.9 +24.7
21 11.06 ЮЗ 2 30 км слабый ливневой дождь 9/5 600 м
[Cb calv Ac trans Ci fib]
+22.8 +13.3 55 +26 +26 жарко 1010.5 1005.6
00 12.06 ЮЗ 3 50 км {ливн. осадки} 8/0
[Ac trans]
+22.9 +11.3 48 +25 +25 комфорт 1010.0 1005.1
03 12.06 Ю 2 28 км 9/4 600 м
[Sc Ac trans Ci]
+21.2 +18.6 85 +26 +26 душно 1009.9 1005.0
06 12.06 Ю 2 27 км 10/4 600 м
[Sc Ac und]
+21.7 +18.7 83 +27 +28 душно 1010.2 1005.3 +21.1 0.0
09 12.06 Ю 5 18 км 4/3 300 м
[St Ac trans]
+23.7 +20.2 81 +29 +35 душно 1009.7 1004.9
12 12.06 Ю 4 29 км 3/0
[Ci fib]
+24.6 +19.0 71 +30 +39 очень
душно
1009.0 1004.2
15 12.06 Ю 3 30 км ясно +23.9 +17.2 66 +28 +31 душно 1007.5 1002.7
18 12.06 ЮЗ 4 30 км 9/0
[Ci fib]
+22.2 +16.9 72 +27 +27 душно 1007.2 1002.3 +25.0
21 12.06 ЮЗ 2 35 км 6/0
[Ci fib]
+21.9 +16.6 72 +26 +26 душно 1006.9 1002.0
00 13.06 ЮЗ 2 40 км 8/0
[Ci fib]
+22.1 +15.0 64 +26 +26 душно 1006.0 1001.1
03 13.06 ЮЗ 3 30 км 8/0
[Ci fib]
+21.3 +16.7 75 +25 +25 комфорт 1005.1 1000.2
06 13.06 ЮЗ 2 20 км 9/3 600 м
[Sc diur, vesp Ac und Ci fib]
+24.9 +17.4 63 +29 +32 душно 1004.8 1000.0 +21.2
09 13.06 Ю 4 30 км 10/3 600 м
[Cu hum Ci sp]
+25.1 +19.0 69 +30 +37 душно 1005.5 1000.7
12 13.06 Ю 5 27 км 9/3 600 м
[Cu hum Ci sp]
+26.3 +18.9 64 +31 +36 душно 1005.0 1000.2
15 13.06 ЮЗ 3 35 км гроза без осадков 9/4 600 м
[Cb calv Ci sp]
+24.8 +18.3 67 +29 +31 душно 1004.3 999.5
18 13.06 ЮЗ 3 35 км {гроза} 6/0
[Ci fib]
+22.8 +16.8 69 +28 +28 душно 1004.6 999.8 +26.9
21 13.06 З 3 50 км 6/0
[Ci fib]
+21.8 +15.6 68 +25 +25 комфорт 1006.1 1001.2
00 14.06 штиль 0 40 км 6/0
[Ci fib]
+20.8 +17.2 80 +24 +24 комфорт 1005.9 1001.0
03 14.06 ЮЗ 2 45 км ясно +20.4 +17.0 81 +24 +25 комфорт 1005.8 1000.9
06 14.06 Ю 3 27 км ясно +24.6 +19.4 73 +30 +37 очень
душно
1006.6 1001.8 +19.4
09 14.06 Ю 3 30 км ясно +23.9 +20.4 81 +30 +45 очень
душно
1007.4 1002.6
12 14.06 Ю 5 40 км ясно +24.4 +18.6 70 +29 +37 душно 1006.9 1002.1
15 14.06 Ю 3 50 км 3/0
[Ci fib]
+25.8 +13.6 47 +28 +31 жарко 1005.8 1001.0
18 14.06 З 1 50 км ясно +23.2 +11.9 49 +26 +26 жарко 1006.1 1001.3 +26.5
21 14.06 СЗ 2 40 км ясно +21.5 +13.7 61 +24 +24 комфорт 1006.4 1001.5
00 15.06 С 1 40 км ясно +20.3 +16.5 79 +24 +24 комфорт 1006.0 1001.1
03 15.06 штиль 0 30 км ясно +19.5 +16.5 83 +21 +22 комфорт 1005.8 1000.9
06 15.06 З 1 24 км 3/0
[Ci fib]
+27.0 +17.5 56 +31 +40 душно 1005.9 1001.1 +19.2
09 15.06 В 1 30 км 8/0
[Ci fib]
+25.1 +18.1 65 +29 +47 душно 1006.8 1002.0
12 15.06 ЮВ 1 35 км 9/3 600 м
[Cu hum Ci sp]
+28.1 +16.1 48 +31 +42 душно 1006.3 1001.5
15 15.06 Ю 1 45 км 9/1 600 м
[Cu hum Ci fib]
+31.7 +11.0 28 +32 +35 жарко 1005.1 1000.4
18 15.06 штиль 0 25 км 10/8 600 м
[Cu med, cong Ci fib]
+26.5 +12.6 42 +28 +28 жарко 1005.4 1000.6 +31.7
21 15.06 З 2 23 км 8/3 600 м
[Cu hum Ac und Ci fib]
+24.5 +14.3 53 +27 +27 жарко 1005.8 1001.0
00 16.06 СЗ 4 45 км 9/8 600 м
[Cu hum Ac As Ci fib]
+23.5 +15.0 59 +26 +26 жарко 1006.3 1001.5
03 16.06 С 3 25 км 9/0
[Ac und Ci sp]
+22.3 +18.5 79 +28 +28 душно 1005.9 1001.1
06 16.06 В 3 30 км 10/0
[Ac cast Cc]
+24.9 +20.2 75 +31 +34 очень
душно
1007.8 1003.0 +22.0
09 16.06 В 5 23 км 10/4 600 м
[Sc Ac und Ci]
+25.0 +20.0 74 +31 +34 очень
душно
1009.4 1004.6
12 16.06 СВ 3 21 км слабый ливневой дождь 10/8 600 м
[Cb calv Ac und]
+22.2 +18.8 81 +28 +28 душно 1009.6 1004.7
15 16.06 С 1 40 км {ливн. осадки} 10/6 600 м
[Cb calv Ac und]
+24.9 +17.9 65 +29 +30 душно 1009.1 1004.3
18 16.06 СЗ 1 30 км {ливн. осадки} 10/6 1000 м
[Sc Ac und]
+23.6 +17.1 67 +27 +27 жарко 1008.8 1004.0 +26.3 0.4
21 16.06 СЗ 1 45 км 10/4 1000 м
[Sc Ac und]
+21.7 +17.1 75 +26 +26 душно 1008.9 1004.0
00 17.06 СЗ 1 45 км 10/0
[Ac und]
+20.5 +16.9 80 +25 +25 комфорт 1008.7 1003.8
03 17.06 В 2 24 км 10/6 600 м
[Sc Ac und]
+21.3 +18.7 85 +26 +26 душно 1008.5 1003.6
06 17.06 СВ 2 26 км в посл. час ливневой дождь 10/8 600 м
[Cb calv Ac trans]
+21.2 +19.0 87 +26 +26 душно 1009.3 1004.4 +20.0 0.8
09 17.06 В 4 11 км слабый ливневой дождь 10/10 300 м
[Cb calv]
+22.3 +20.4 89 +29 +29 очень
душно
1009.8 1004.9
12 17.06 В 1 18 км слабый ливневой дождь 10/5 600 м
[Cb calv Ac und Ci sp]
+22.8 +20.9 89 +30 +34 очень
душно
1010.0 1005.2
15 17.06 Ю 2 45 км {ливн. осадки} 9/4 600 м
[Sc diur, vesp Ac trans Ci]
+23.6 +17.1 67 +27 +29 жарко 1009.5 1004.7
18 17.06 СЗ 1 30 км слабый ливневой дождь 10/8 600 м
[Cb calv Ac und]
+21.5 +17.9 80 +26 +26 душно 1010.3 1005.4 +24.2 0.1
21 17.06 штиль 0 45 км в посл. час ливневой дождь 10/8 600 м
[Cb calv Ac und]
+21.4 +16.6 74 +25 +25 комфорт 1010.9 1006.0
00 18.06 С 2 45 км в посл. час ливневой дождь 10/6 600 м
[Cb calv Ac und]
+20.7 +15.7 73 +24 +24 комфорт 1010.3 1005.4
03 18.06 штиль 0 35 км 10/3 600 м
[Sc Ac trans Ci fib]
+19.7 +16.7 83 +22 +22 комфорт 1010.2 1005.3
06 18.06 С 2 26 км 10/0
[Ac trans Ci fib]
+25.8 +17.2 59 +30 +35 душно 1010.5 1005.7 +19.6 0.0
09 18.06 В 3 27 км 6/3 600 м
[Cu hum Ac trans Ci sp]
+27.1 +12.3 40 +29 +37 жарко 1011.4 1006.6
12 18.06 В 2 35 км 8/0
[Ac trans Ci fib]
+27.7 +9.0 31 +28 +39 жарко 1011.6 1006.8
15 18.06 штиль 0 45 км 8/0
[Ci fib]
+28.4 +4.0 21 +27 +32 жарко 1010.7 1005.9

 

Местоположение метеостанции Одесса (Одесская область, Украина): широта 46.43 долгота 30.77 высота над уровнем моря 42 м.

В архиве по умолчанию представлена погода в Одессе за последнюю неделю. Архивные данные за месяц целиком и за предыдущие месяцы, начиная с января 2011 года, Вы можете получить, выбрав интересующий диапазон дат из раскрывающегося списка и нажав кнопку "Ввод!".


*Определитесь, кто Вы:
робот инопланетянин человек

Внимание! Время в таблицах - всемирное. Для получения местного времени необходимо прибавить поправку, которая в Одессе равна 2 ч.

Смотрите также архив погоды в соседних городах и на ближайших метеорологических станциях:

Погода в Ильичёвске (Одесская область, Украина) (6 км)
Погода в Белгород-Днестровском (Одесская область, Украина) (41 км)
Погода в Очакове (Николаевская область, Украина) (64 км)
Погода в Сербке (Одесская область, Украина) (66 км)
Погода в Раздельной (Одесская область, Украина) (70 км)
Погода в Заставе (Одесская область, Украина) (72 км)
Погода в Сарате (Одесская область, Украина) (96 км)
Погода в Штефан Водэ (Молдова) (99 км)
Погода в Тирасполе (Молдова) (103 км)
Погода в Николаеве (Николаевская область, Украина) (112 км)

Пояснения к столбцам:

Ветер - указаны скорость ветра в м/с - средняя за 10 мин, порывы в срок и между сроками (в фигурных скобках) и направление, откуда дует ветер: С - северный, СВ - северо-восточный, В - восточный, ЮВ - юго-восточный, Ю - южный, ЮЗ - юго-западный, З - западный, СЗ - северо-западный.
Видимость - горизонтальная дальность видимости в метрах или километрах. При видимости от 1 до 10 км при отсутствии осадков обычно наблюдается дымка, при ухудшении видимости до 1 км и менее - туман. В сухую погоду видимость может ухудшаться дымом, пылью или мглою.
Явления - указаны атмосферные явления, наблюдавшиеся в срок или в последний час перед сроком; фигурными скобками обозначены явления, наблюдавшиеся между сроками (за 1-3 часа до срока); квадратными скобками обозначены град или гололедные отложения с указанием их диаметра в мм.
Облачность - указаны через наклонную черту общая и нижняя облачность в баллах и высота нижней границы облаков в метрах; квадратными скобками обозначены формы облаков: Ci - перистые, Cs - перисто-слоистые, Cc - перисто-кучевые, Ac - высококучевые, As - высокослоистые, Sc - слоисто-кучевые, Ns - слоисто-дождевые, Cu - кучевые, Cb - кучево-дождевые. Подробнее классификацию облаков см. в Атласе облаков (PDF).
T - Температура воздуха - температура, измеренная на высоте 2 м над землей.
Td - Температура точки росы - температура, при понижении до которой содержащийся в воздухе водяной пар достигнет насыщения.
f - Относительная влажность воздуха - влажноcть воздуха, измеренная на высоте 2 м над землей.
Te - Эффективная температура - температура, которую ощущает одетый по сезону человек в тени. Характеристика душности погоды. При расчете учитывается влияние влажности воздуха и скорости ветра на теплоощущения человека.
Tes - Эффективная температура на солнце - температура, которую ощущает человек, с поправкой на солнечный нагрев. Характеристика знойности погоды. Зависит от высоты солнца над горизонтом, облачности и скорости ветра. Ночью, в пасмурную погоду, а также при ветре 12 м/с и более поправка равна нулю.
P - Атмосферное давление - приведенное к уровню моря атмосферное давление.
Po - Атмосферное давление - измеренное на уровне метеостанции атмосферное давление.
Tmin - Минимальная температура - минимум температуры воздуха на высоте 2 м над землей.
Tmax - Максимальная температура - максимум температуры воздуха на высоте 2 м над землей.
R - Количество осадков - Количество выпавших осадков за период времени, мм. При наведении курсора мыши на число - период времени, за который выпало указанное количество осадков.
R24 - Количество осадков - Количество выпавших осадков за 24 часа, мм.
S - Снежный покров - Высота снежного покрова, см. При наведении курсора мыши на число - состояние снежного покрова и степень покрытия местности в баллах.